DW7076 Floda SE current weather conditions

sailwx.info

Wind from 269 at 0 knots gusting 6

Air temperature 28.3° C
Dewpoint 17.8° C

Last reported at 2015-Jul-05 16:46 UTC.
Time now 2015-Jul-05 17:34 UTC

Location: N 57°49' E 012°21'.
View on Google Maps.

See reports from other nearby stations

  
Tides and Currents Weather Stations Pressure Air Temp Water Temp Dewpoint Dewpoint Depression Visibility Wind Speed Wind Dir Waves Ship Positions
date/time (UTC)wind fromknots sea level pressurealtimeterstation pressurevisibilityair tempwater tempwave heightnotes
2015-Jul-05 16:46 269 0 gusting 6 28.3
2015-Jul-05 16:36 318 2 gusting 6 28.3
2015-Jul-05 16:26 324 2 gusting 6 28.9
2015-Jul-05 16:16 314 1 gusting 5 28.9
2015-Jul-05 16:06 313 1 gusting 5 28.9
2015-Jul-05 15:56 289 2 gusting 5 28.9
2015-Jul-05 15:46 175 0 gusting 2 28.9
2015-Jul-05 15:36 323 0 gusting 2 29.4
2015-Jul-05 15:26 200 0 gusting 4 29.4
2015-Jul-05 15:16 327 0 gusting 4 29.4
2015-Jul-05 15:06 220 1 gusting 6 30.0
2015-Jul-05 14:56 268 2 gusting 5 30.6
2015-Jul-05 14:46 232 1 gusting 6 30.6
2015-Jul-05 14:36 303 1 gusting 7 30.6
2015-Jul-05 14:26 291 1 gusting 6 30.6
2015-Jul-05 14:16 298 30.6
2015-Jul-05 14:06 312 4 gusting 7 30.6
2015-Jul-05 13:56 226 1 gusting 2 30.0
2015-Jul-05 13:46 229 0 gusting 6 30.6
2015-Jul-05 13:36 083 0 gusting 4 30.0
2015-Jul-05 13:26 305 2 gusting 5 30.6
2015-Jul-05 13:16 286 1 gusting 6 30.0
2015-Jul-05 13:06 269 1 gusting 2 30.6
2015-Jul-05 12:56 284 0 gusting 2 30.0
2015-Jul-05 12:46 247 0 gusting 5 30.0
2015-Jul-05 12:36 042 0 gusting 2 30.0
2015-Jul-05 12:26 040 29.4
2015-Jul-05 12:16 302 1 gusting 2 29.4
2015-Jul-05 12:06 177 0 gusting 4 28.9
2015-Jul-05 11:56 147 0 gusting 2 28.9
2015-Jul-05 11:46 154 1 gusting 4 28.9
2015-Jul-05 11:36 261 1 gusting 2 28.9
2015-Jul-05 11:26 28.9
2015-Jul-05 11:16 124 29.4
2015-Jul-05 11:06 150 0 gusting 4 28.9
2015-Jul-05 10:56 175 1 gusting 4 28.9
2015-Jul-05 10:46 293 28.9
2015-Jul-05 10:36 277 1 gusting 2 27.2
2015-Jul-05 10:26 330 0 gusting 2 27.2
2015-Jul-05 10:16 189 0 gusting 2 27.2
2015-Jul-05 10:06 313 1 gusting 2 27.8
2015-Jul-05 09:56 229 0 gusting 5 26.7
2015-Jul-05 09:46 199 0 gusting 2 26.7
2015-Jul-05 09:36 178 0 gusting 2 26.1
2015-Jul-05 09:26 150 1 gusting 4 26.7
2015-Jul-05 09:16 189 0 gusting 2 26.7
2015-Jul-05 09:06 194 1 gusting 2 26.1
2015-Jul-05 08:56 228 26.1
2015-Jul-05 08:46 316 25.6
2015-Jul-05 08:36 149 1 gusting 6 25.0
2015-Jul-05 08:26 281 2 gusting 6 25.0
2015-Jul-05 08:16 202 0 gusting 2 25.0
2015-Jul-05 08:06 274 0 gusting 4 25.0
2015-Jul-05 07:56 008 1 gusting 5 24.4
2015-Jul-05 07:46 179 0 gusting 4 24.4
2015-Jul-05 07:36 183 1 gusting 5 23.9
2015-Jul-05 07:26 247 1 gusting 4 23.9
2015-Jul-05 07:16 135 1 gusting 6 23.3
2015-Jul-05 07:06 148 23.3
2015-Jul-05 06:56 163 0 gusting 4 22.8
2015-Jul-05 06:46 200 0 gusting 2 22.8
2015-Jul-05 06:36 221 0 gusting 2 22.2
2015-Jul-05 06:26 242 21.7
2015-Jul-05 06:16 300 1 gusting 4 21.1
2015-Jul-05 06:06 239 0 gusting 2 20.6
2015-Jul-05 05:56 261 1 gusting 5 20.0
2015-Jul-05 05:46 298 18.3
2015-Jul-05 05:36 298 17.2
2015-Jul-05 05:26 298 17.2
2015-Jul-05 05:16 298 16.7
2015-Jul-05 05:06 298 16.7
2015-Jul-05 04:56 298 16.7
2015-Jul-05 04:46 298 16.1
2015-Jul-05 04:36 298 16.1
2015-Jul-05 04:26 298 16.1
2015-Jul-05 04:16 298 15.6
2015-Jul-05 04:06 298 15.6
2015-Jul-05 03:56 298 15.6
2015-Jul-05 03:46 298 15.6
2015-Jul-05 03:36 298 15.6
2015-Jul-05 03:26 298 15.6
2015-Jul-05 03:16 298 15.6
2015-Jul-05 03:06 298 15.6
2015-Jul-05 02:56 298 15.6
2015-Jul-05 02:46 298 15.6
2015-Jul-05 02:36 298 15.6
2015-Jul-05 02:26 298 15.6
2015-Jul-05 02:16 298 16.1
2015-Jul-05 02:06 298 16.1
2015-Jul-05 01:56 298 16.1
2015-Jul-05 01:46 298 16.1
2015-Jul-05 01:36 298 16.1
2015-Jul-05 01:26 298 16.1
2015-Jul-05 01:16 298 16.1
2015-Jul-05 01:06 298 16.1
2015-Jul-05 00:56 298 16.7
2015-Jul-05 00:46 298 16.7
2015-Jul-05 00:36 298 17.2
2015-Jul-05 00:26 298 17.2
2015-Jul-05 00:16 298 17.2
2015-Jul-05 00:06 298 0 gusting 0 17.8
2015-Jul-04 23:56 298 17.8
2015-Jul-04 23:46 298 18.3
2015-Jul-04 23:36 298 18.3
2015-Jul-04 23:26 298 18.3
2015-Jul-04 23:16 298 18.9
2015-Jul-04 23:06 298 18.9
2015-Jul-04 22:56 298 18.9
2015-Jul-04 22:46 298 19.4
2015-Jul-04 22:36 298 19.4
2015-Jul-04 22:26 298 19.4
2015-Jul-04 22:16 298 19.4
2015-Jul-04 22:06 298 19.4
2015-Jul-04 21:56 298 20.0
2015-Jul-04 21:46 298 20.0
2015-Jul-04 21:36 298 20.0
2015-Jul-04 21:26 298 20.0
2015-Jul-04 21:16 306 0 gusting 2 20.0
2015-Jul-04 21:06 306 0 gusting 4 20.0
2015-Jul-04 20:56 318 0 gusting 2 20.0
2015-Jul-04 20:46 327 0 gusting 1 20.0
2015-Jul-04 20:36 327 20.6
2015-Jul-04 20:26 327 20.6
2015-Jul-04 20:16 327 1 gusting 2 20.6
2015-Jul-04 20:06 321 0 gusting 2 21.1
2015-Jul-04 19:56 322 0 gusting 2 21.1
2015-Jul-04 19:46 322 1 gusting 2 21.7
2015-Jul-04 19:36 289 0 gusting 2 22.2
2015-Jul-04 19:26 286 0 gusting 2 22.8
2015-Jul-04 19:16 286 0 gusting 2 22.8
2015-Jul-04 19:06 286 23.3
2015-Jul-04 18:56 286 0 gusting 1 23.3
2015-Jul-04 18:46 286 23.9
2015-Jul-04 18:36 286 0 gusting 1 23.9
2015-Jul-04 18:26 286 0 gusting 2 24.4
2015-Jul-04 18:16 286 24.4
2015-Jul-04 18:06 286 24.4
2015-Jul-04 17:56 286 0 gusting 1 25.0
2015-Jul-04 17:46 286 25.0
2015-Jul-04 17:36 286 25.6
2015-Jul-04 17:26 234 25.6
2015-Jul-04 17:16 229 0 gusting 2 25.6
2015-Jul-04 17:06 220 0 gusting 4 25.6
2015-Jul-04 16:56 295 0 gusting 2 25.6
2015-Jul-04 16:46 313 0 gusting 2 26.1
2015-Jul-04 16:36 299 1 gusting 2 26.1
2015-Jul-04 16:26 219 0 gusting 6 26.1
2015-Jul-04 16:16 340 0 gusting 2 25.6
2015-Jul-04 16:06 195 1 gusting 4 25.6
2015-Jul-04 15:56 316 0 gusting 6 26.1
2015-Jul-04 15:46 329 1 gusting 5 26.1
2015-Jul-04 15:36 299 0 gusting 6 26.7
2015-Jul-04 15:26 229 0 gusting 4 26.7
2015-Jul-04 15:16 247 1 gusting 6 26.7
2015-Jul-04 15:06 331 3 gusting 7 27.2
2015-Jul-04 14:56 280 1 gusting 7 27.2
2015-Jul-04 14:46 333 2 gusting 6 27.8
2015-Jul-04 14:36 279 3 gusting 8 27.8
2015-Jul-04 14:26 294 1 gusting 5 27.8
2015-Jul-04 14:16 286 2 gusting 10 27.8
2015-Jul-04 14:06 211 1 gusting 7 27.8
2015-Jul-04 13:56 001 1 gusting 8 27.8
2015-Jul-04 13:46 255 0 gusting 10 27.8
2015-Jul-04 13:36 264 5 gusting 11 27.8
2015-Jul-04 13:26 306 1 gusting 6 27.8
2015-Jul-04 13:16 273 1 gusting 5 27.8
2015-Jul-04 13:06 285 1 gusting 7 27.2
2015-Jul-04 12:56 273 3 gusting 6 27.8
2015-Jul-04 12:46 202 2 gusting 6 28.3
2015-Jul-04 12:36 200 2 gusting 7 27.8
2015-Jul-04 12:26 240 3 gusting 6 27.8
2015-Jul-04 12:16 294 0 gusting 6 27.8
2015-Jul-04 12:06 312 0 gusting 5 28.3
2015-Jul-04 11:56 240 2 gusting 6 28.3
2015-Jul-04 11:46 193 2 gusting 6 28.3
2015-Jul-04 11:36 047 0 gusting 5 27.8
2015-Jul-04 11:26 149 0 gusting 4 27.2
2015-Jul-04 11:16 296 1 gusting 5 27.2
2015-Jul-04 11:06 268 27.2
2015-Jul-04 10:56 291 0 gusting 6 26.7
2015-Jul-04 10:46 189 0 gusting 5 27.2
2015-Jul-04 10:36 339 2 gusting 5 26.7
2015-Jul-04 10:26 303 1 gusting 8 26.1
2015-Jul-04 10:16 288 0 gusting 5 26.7
2015-Jul-04 10:06 288 3 gusting 6 26.1
2015-Jul-04 09:56 250 2 gusting 6 26.1
2015-Jul-04 09:46 255 1 gusting 8 26.1
2015-Jul-04 09:36 327 4 gusting 10 26.1
2015-Jul-04 09:26 297 0 gusting 6 26.1
2015-Jul-04 09:16 176 1 gusting 10 26.1
2015-Jul-04 09:06 274 0 gusting 7 26.1
2015-Jul-04 08:56 281 2 gusting 8 26.1
2015-Jul-04 08:46 307 0 gusting 6 25.6
2015-Jul-04 08:36 309 1 gusting 7 25.0
2015-Jul-04 08:26 224 2 gusting 10 25.0
2015-Jul-04 08:16 117 1 gusting 7 24.4
2015-Jul-04 08:06 190 2 gusting 7 24.4
2015-Jul-04 07:56 312 1 gusting 5 24.4
2015-Jul-04 07:46 270 1 gusting 5 23.9
2015-Jul-04 07:36 132 0 gusting 4 23.3
2015-Jul-04 07:26 266 0 gusting 6 22.8
2015-Jul-04 07:16 264 0 gusting 2 22.8
2015-Jul-04 07:06 187 22.2
2015-Jul-04 06:56 209 21.7
2015-Jul-04 06:46 298 21.7
2015-Jul-04 06:36 266 0 gusting 2 21.1
2015-Jul-04 06:26 242 0 gusting 2 20.6
2015-Jul-04 06:16 169 20.0
2015-Jul-04 06:06 196 0 gusting 1 20.0
2015-Jul-04 05:56 193 19.4
2015-Jul-04 05:46 169 0 gusting 2 18.3
2015-Jul-04 05:36 184 17.2
2015-Jul-04 05:26 184 0 gusting 2 16.7
2015-Jul-04 05:16 263 16.7
2015-Jul-04 05:06 263 16.1
2015-Jul-04 04:56 263 16.1
2015-Jul-04 04:46 263 16.1
2015-Jul-04 04:36 263 16.1
2015-Jul-04 04:26 263 15.6
2015-Jul-04 04:16 263 15.6
2015-Jul-04 04:06 263 15.6
2015-Jul-04 03:56 263 15.6
2015-Jul-04 03:46 263 15.6
2015-Jul-04 03:36 263 15.6
2015-Jul-04 03:26 263 15.6
2015-Jul-04 03:16 263 15.6
2015-Jul-04 03:06 263 15.6
2015-Jul-04 02:56 263 15.6
2015-Jul-04 02:46 263 15.6
2015-Jul-04 02:36 263 15.6
2015-Jul-04 02:26 263 15.6
2015-Jul-04 02:16 263 15.6
2015-Jul-04 02:06 263 15.6
2015-Jul-04 01:56 263 15.6
2015-Jul-04 01:46 263 15.6
2015-Jul-04 01:36 263 15.6
2015-Jul-04 01:26 263 15.6
2015-Jul-04 01:16 263 15.6
2015-Jul-04 01:06 269 15.6
2015-Jul-04 00:56 269 16.1
2015-Jul-04 00:46 269 16.1
2015-Jul-04 00:36 272 16.1
2015-Jul-04 00:26 272 16.1
2015-Jul-04 00:16 273 16.1
2015-Jul-04 00:06 273 16.1
2015-Jul-03 23:56 273 16.7
2015-Jul-03 23:46 273 16.7
2015-Jul-03 23:36 273 16.7
2015-Jul-03 23:26 273 16.7
2015-Jul-03 23:16 273 16.7
2015-Jul-03 23:06 273 17.2
2015-Jul-03 22:56 273 17.2
2015-Jul-03 22:46 273 17.2
2015-Jul-03 22:36 273 17.2
2015-Jul-03 22:26 273 17.8
2015-Jul-03 22:16 273 17.8
2015-Jul-03 22:06 273 17.8
2015-Jul-03 21:56 273 17.8
2015-Jul-03 21:46 273 18.3
2015-Jul-03 21:36 273 18.3
2015-Jul-03 21:26 273 18.9
2015-Jul-03 21:16 273 18.9
2015-Jul-03 21:06 273 19.4
2015-Jul-03 20:56 273 0 gusting 1 19.4
2015-Jul-03 20:46 267 20.0
2015-Jul-03 20:36 267 20.6
2015-Jul-03 20:26 267 20.6
2015-Jul-03 20:16 267 21.1
2015-Jul-03 20:06 267 21.7
2015-Jul-03 19:56 267 22.2
2015-Jul-03 19:46 267 22.2
2015-Jul-03 19:36 267 22.8
2015-Jul-03 19:26 267 23.3
2015-Jul-03 19:16 274 23.3
2015-Jul-03 19:06 321 0 gusting 2 23.9
2015-Jul-03 18:56 340 0 gusting 2 23.9
2015-Jul-03 18:46 188 0 gusting 1 24.4
2015-Jul-03 18:36 175 24.4
2015-Jul-03 18:26 149 1 gusting 5 25.0
2015-Jul-03 18:16 156 0 gusting 4 25.0
2015-Jul-03 18:06 244 1 gusting 5 25.0
2015-Jul-03 17:56 189 1 gusting 5 25.6
2015-Jul-03 17:46 135 1 gusting 5 25.6
2015-Jul-03 17:36 230 3 gusting 8 26.1
2015-Jul-03 17:26 282 1 gusting 5 26.7
2015-Jul-03 17:16 154 0 gusting 6 26.7
2015-Jul-03 17:06 231 2 gusting 7 26.7